This demonstration page uses our WeatherBlox Daily Observations layout. Learn more.

Left ArrowRight Arrow

Hourly Observations for April 4, 2021

Temp ( °F °C ) Dew Point ( °F °C ) Humidity (%) Winds ( mph kmh ) Pressure ( in mb ) Visibility ( mi km ) Precip ( " mm )
12:53 am 00:53 Clear 41 5 33 0.6 73 73 Calm 30.37 1029 10 16 0.00 0.00
1:53 am 01:53 Clear 39 3.9 33 0.6 79 79 Calm 30.36 1028 10 16 0.00 0.00
2:53 am 02:53 Clear 39 3.9 33 0.6 79 79 Calm 30.35 1028 10 16 0.00 0.00
3:53 am 03:53 Clear 37 2.8 33 0.6 86 86 Calm 30.33 1027 10 16 0.00 0.00
4:53 am 04:53 Clear 37 2.8 34 1.1 89 89 Calm 30.34 1027 10 16 0.00 0.00
5:53 am 05:53 Clear 36 2.2 33 0.6 89 89 Calm 30.34 1027 10 16 0.00 0.00
6:53 am 06:53 Clear 35 1.7 33 0.6 93 93 Calm 30.34 1027 10 16 0.00 0.00
7:53 am 07:53 Sunny 34 1.1 34 1.1 100 100 Calm 30.35 1028 10 16 0.00 0.00
8:53 am 08:53 Sunny 42 5.6 36 2.2 79 79 Calm 30.36 1028 10 16 0.00 0.00
9:53 am 09:53 Sunny 49 9.4 37 2.8 64 64 Calm 30.35 1028 10 16 0.00 0.00
10:53 am 10:53 Sunny 60 15.6 32 0 35 35 WSW 5 7 30.34 1027 10 16 0.00 0.00
11:53 am 11:53 Sunny 65 18.3 28 -2.2 25 25 NW 9 15 30.32 1027 10 16 0.00 0.00
12:53 pm 12:53 Sunny 67 19.4 26 -3.3 21 21 undefined N/A 30.29 1026 10 16 0.00 0.00
1:53 pm 13:53 Sunny 68 20 28 -2.2 22 22 Calm 30.27 1025 10 16 0.00 0.00
2:53 pm 14:53 Sunny 70 21.1 28 -2.2 21 21 VRB 5 7 30.23 1024 10 16 0.00 0.00
3:53 pm 15:53 Sunny 71 21.7 26 -3.3 19 19 Calm 30.20 1023 10 16 0.00 0.00
4:53 pm 16:53 Sunny 72 22.2 27 -2.8 19 19 VRB 3 6 30.18 1022 10 16 0.00 0.00
5:53 pm 17:53 Sunny 72 22.2 25 -3.9 17 17 VRB 3 6 30.17 1022 10 16 0.00 0.00
6:53 pm 18:53 Sunny 71 21.7 29 -1.7 21 21 WNW 7 11 30.17 1022 10 16 0.00 0.00
7:53 pm 19:53 Sunny 67 19.4 28 -2.2 23 23 NNW 5 7 30.18 1022 10 16 0.00 0.00
8:53 pm 20:53 Clear 62 16.7 30 -1.1 30 30 Calm 30.18 1022 10 16 0.00 0.00
9:53 pm 21:53 Clear 59 15 32 0 36 36 SSE 3 6 30.19 1022 10 16 0.00 0.00
10:53 pm 22:53 Clear 54 12.2 36 2.2 51 51 Calm 30.19 1022 10 16 0.00 0.00
11:53 pm 23:53 Clear 51 10.6 37 2.8 59 59 Calm 30.19 1022 10 16 0.00 0.00

Powered by AerisWeather